RH
67 65 73 78 79 79 76 70 77 74 65 43 40 36 29 27 32 44 71 62 58 60 60 62 64 66 68 71 74 81 81 78 78 88 90 89 84 86 83 77 72 69 63
69 66 73 79 80 80 80 77 75 74 79 73 48 41 34 32 33 44 69 73 69 62 61 61 64 69 72 73 75 85 85 82 76 84 93 95 81 81 74 74 76 75 70
79 76 79 83 85 87 90 85 80 78 74 79 65 45 39 48 46 62 65 67 69 70 68 64 64 67 72 75 77 82 84 75 74 75 85 97 98 90 70 70 73 80 76
84 72 79 85 87 90 93 97 94 87 83 78 78 67 42 43 44 48 56 67 70 76 74 70 76 82 84 85 83 81 81 83 89 89 84 92 87 88 83 78 72 69 79
77 76 74 82 81 81 85 97 97 96 93 93 80 78 60 45 40 43 57 69 76 79 79 80 82 84 88 92 92 91 92 91 90 93 95 100 100 98 96 91 79 74 72
80 76 74 81 82 83 88 99 99 99 99 100 86 75 69 47 50 47 58 62 72 81 78 90 86 90 91 93 94 94 94 98 100 96 95 96 88 84 93 95 87 84 76
85 75 70 78 82 88 86 94 98 100 99 99 94 82 73 67 73 70 61 78 97 99 94 92 94 95 93 97 98 100 100 100 100 100 100 100 100 98 92 91 89 89 89
83 61 66 75 77 82 83 89 95 100 100 100 100 98 88 88 96 100 100 98 100 94 86 87 85 83 84 85 90 96 99 100 100 100 100 100 100 100 100 99 99 98 99
56 53 62 66 73 76 75 76 83 92 99 100 100 100 97 90 99 98 98 94 92 88 84 85 86 82 78 73 68 74 87 93 98 99 98 100 100 100 99 100 100 100 99
52 54 58 62 63 60 64 73 67 71 86 96 99 99 99 98 96 94 93 89 84 79 75 72 69 69 65 61 62 57 61 74 80 75 87 82 82 91 96 98 100 100 99
49 44 50 53 52 54 54 62 66 71 77 82 85 84 81 83 84 82 79 77 75 72 78 71 55 53 50 57 51 50 50 54 59 57 56 64 66 66 64 64 68 78 93
44 44 45 45 46 44 47 49 50 55 67 71 74 71 68 66 61 63 73 64 64 57 58 69 54 52 54 56 56 50 52 57 60 60 59 59 55 60 71 82 89 84 80
45 48 42 44 42 40 44 48 49 49 50 52 54 52 53 52 52 52 52 52 51 51 51 51 53 51 55 56 51 48 56 60 64 66 66 68 71 74 74 71 71 77 88
48 51 52 45 43 40 41 46 49 47 50 50 49 50 52 52 52 54 52 52 52 51 50 54 56 54 59 61 60 61 65 64 66 69 71 72 75 75 77 82 84 82 81
51 50 52 56 45 42 40 45 49 48 49 50 51 54 55 56 54 53 54 53 53 56 56 57 58 58 60 70 72 79 78 77 76 75 74 75 74 73 80 81 83 84 84
51 45 48 51 46 43 40 42 45 47 49 49 50 52 51 53 55 55 58 58 59 60 60 61 61 61 62 68 77 80 80 81 81 82 81 79 79 78 84 84 83 83 87
51 46 48 49 40 40 37 39 43 44 47 49 51 52 54 54 57 58 57 57 59 60 62 64 64 63 62 67 72 78 78 83 81 82 81 80 82 81 82 79 83 81 84
50 50 49 45 39 36 35 37 42 45 47 48 50 53 56 57 58 60 60 61 64 64 65 64 62 62 60 61 73 78 79 85 86 84 82 80 78 78 81 86 85 80 78
51 47 39 40 39 35 35 37 42 44 47 49 52 53 56 58 58 60 62 61 65 65 63 61 60 59 58 61 74 79 79 82 82 82 85 89 87 85 82 87 88 82 81
43 45 41 40 37 36 36 40 43 46 48 47 51 52 54 59 60 62 62 66 69 67 63 60 60 59 62 66 76 80 78 77 78 82 86 85 85 86 88 90 91 93 93
45 43 43 41 38 38 37 41 43 46 43 47 52 51 56 58 58 59 61 65 67 67 62 61 63 64 69 72 81 83 79 76 81 84 82 85 88 90 90 92 95 98 99
49 46 45 42 39 38 38 42 45 40 45 50 51 53 56 56 56 57 62 63 66 66 64 66 70 74 79 80 86 84 84 88 88 83 84 86 90 90 92 94 96 99 99
49 49 46 45 41 40 39 42 40 45 51 55 54 56 57 54 55 60 62 63 65 67 70 76 80 81 84 86 91 90 89 89 88 86 91 92 88 89 92 94 96 96 100
51 50 52 54 50 44 41 40 42 50 55 56 56 56 54 52 59 60 63 65 68 73 80 84 80 81 83 84 86 84 86 86 81 82 92 86 85 88 89 92 95 98 100
49 49 55 56 52 47 44 44 46 52 57 57 56 58 54 56 59 63 65 71 74 77 83 82 79 84 83 83 85 88 91 84 79 86 90 92 92 87 88 88 91 94 97
47 54 54 57 54 50 47 48 50 54 56 58 59 59 57 60 63 68 70 72 80 85 86 88 81 82 83 85 87 88 86 84 84 89 93 93 92 93 95 96 95 95 95
Wind_Speed
13 18 21 21 26 26 25 25 24 22 22 23 22 22 27 28 32 30 27 24 25 23 20 19 18 17 17 15 16 18 17 17 18 17 21 25 26 30 32 35 31 37 37
8 14 17 19 23 21 25 26 28 26 25 21 25 22 22 24 30 32 30 22 23 24 22 18 16 13 13 15 15 18 17 18 18 13 7 4 10 22 29 33 36 40 40
8 9 15 17 21 23 27 27 29 30 26 24 19 23 20 21 27 25 29 28 21 17 15 15 12 15 14 15 16 15 18 22 22 23 13 3 5 2 15 25 33 34 38
5 8 12 15 18 22 26 25 27 28 25 23 21 18 21 23 27 28 25 29 22 21 18 10 11 12 13 15 19 22 24 24 22 20 27 32 21 6 8 16 24 28 34
7 8 11 14 18 21 23 24 25 23 22 22 21 20 22 24 26 27 24 23 13 8 5 3 7 12 15 16 18 21 25 28 29 25 22 22 25 26 13 12 13 23 33
8 9 14 10 15 19 22 22 22 22 17 19 20 20 21 24 22 23 23 23 15 7 3 1 5 6 8 11 12 15 21 27 29 29 29 27 17 15 14 11 13 15 28
7 6 4 7 14 17 21 19 20 18 16 14 11 7 8 14 17 17 21 13 12 10 6 1 6 6 8 9 10 11 14 16 26 27 27 26 27 27 25 19 14 10 15
6 6 2 7 13 13 17 19 19 18 17 12 11 6 1 4 5 4 8 10 10 10 5 1 3 6 8 10 9 10 11 11 12 14 17 20 22 25 24 20 5 3 4
6 5 3 5 8 12 15 18 20 21 18 15 10 9 8 4 7 9 11 10 9 7 4 2 4 7 10 11 12 13 12 12 12 11 12 10 8 11 15 12 9 1 2
6 5 5 4 6 8 11 16 16 18 19 16 12 11 12 12 12 10 10 8 7 5 4 3 6 8 9 10 11 13 15 14 15 16 15 16 15 12 11 10 9 10 10
6 5 6 6 7 7 9 9 13 14 15 15 14 13 13 12 10 9 8 7 5 4 3 4 8 8 9 10 13 12 12 13 12 13 14 13 14 16 15 13 15 15 10
7 6 8 6 3 1 3 5 6 8 10 11 11 12 12 12 13 11 7 7 7 8 9 7 8 7 6 9 9 10 12 13 15 16 16 15 15 14 12 12 11 12 12
7 6 5 6 5 2 1 1 3 4 7 7 7 9 10 10 10 9 9 8 8 8 7 7 7 9 9 7 10 12 13 13 13 14 16 16 15 14 16 16 16 15 11
8 6 5 7 8 5 4 3 1 1 2 3 4 6 7 7 6 6 6 7 7 7 8 7 7 8 7 8 12 12 13 13 13 12 12 12 13 15 16 13 14 16 18
8 8 7 6 12 10 8 6 4 2 0 2 4 6 7 7 8 8 9 10 10 9 9 8 8 8 7 8 11 13 14 15 15 14 14 14 15 13 12 14 16 17 17
9 9 9 9 13 14 13 10 7 4 2 1 2 4 6 6 8 8 9 10 11 11 11 10 10 10 9 8 9 10 15 16 16 18 17 17 15 14 16 16 16 16 18
10 10 10 12 19 17 15 12 9 6 3 1 3 5 7 9 10 11 12 13 13 12 11 10 10 10 10 8 11 12 17 19 19 19 21 23 19 21 21 22 18 19 18
9 9 9 18 19 17 17 12 10 8 6 4 3 3 4 5 6 7 8 10 11 12 13 12 12 12 12 11 9 12 16 18 17 17 19 20 23 21 21 22 22 24 24
9 14 23 24 20 21 19 16 15 13 11 8 6 4 4 4 5 6 7 8 8 10 10 11 12 12 11 8 9 12 15 15 16 19 19 20 22 21 20 22 22 24 26
12 12 20 21 23 23 20 19 18 16 15 12 10 7 4 4 5 6 7 8 9 11 11 11 10 11 9 8 11 13 14 16 17 19 21 21 20 22 24 25 24 23 25
9 10 20 25 27 23 22 21 18 19 15 13 9 7 5 4 5 5 7 9 9 11 10 10 10 9 10 10 13 13 15 16 18 20 22 22 24 27 29 29 27 27 30
5 12 19 21 23 24 26 23 21 18 15 13 10 7 4 3 4 6 6 7 8 9 9 10 12 13 12 13 14 15 16 17 18 20 22 25 29 32 30 27 24 27 27
11 14 19 20 22 25 29 25 22 17 17 13 10 6 4 3 4 5 5 7 6 8 8 10 15 15 15 17 15 16 17 19 21 20 22 26 26 27 26 24 25 25 22
13 16 18 19 22 25 29 27 18 18 18 14 11 7 6 5 5 4 5 5 7 8 7 11 12 14 14 15 18 18 19 20 20 22 21 22 22 21 22 23 22 21 23
15 18 22 21 25 25 27 23 19 20 20 15 12 10 8 7 6 5 4 5 7 7 9 11 13 13 15 17 20 21 22 22 22 23 19 18 18 19 19 21 22 23 23
19 16 22 22 25 26 29 26 23 23 20 16 13 11 9 8 5 4 4 5 4 5 9 9 10 12 15 17 19 21 20 21 20 17 16 17 17 18 19 19 22 22 23
Wind_Direction
337 342 338 334 336 338 336 332 331 325 316 291 277 268 251 260 263 258 246 237 235 226 217 224 230 232 241 250 247 242 247 256 263 264 267 267 264 260 254 256 249 253 254
329 331 323 329 333 334 330 326 317 317 315 314 287 271 257 259 264 265 245 231 235 219 219 218 224 227 235 246 251 238 246 254 264 256 271 280 276 256 254 250 256 247 250
325 334 334 331 336 337 332 324 310 306 305 307 304 270 260 259 254 262 253 243 230 239 225 215 233 248 248 251 256 253 250 260 261 253 239 267 235 260 246 251 252 247 245
319 312 310 318 329 331 328 323 318 310 304 293 299 288 256 254 259 262 253 241 228 215 230 224 226 245 256 258 263 266 267 267 258 260 257 248 257 265 279 243 247 251 246
289 281 279 291 315 328 324 321 322 321 312 304 293 290 273 260 261 266 249 227 195 180 203 197 258 267 279 277 273 274 272 268 258 251 248 244 247 248 248 270 255 251 252
271 287 298 299 313 327 331 333 331 332 326 323 294 290 277 265 263 256 259 237 200 189 192 49 273 272 288 286 287 287 282 272 261 257 253 249 248 244 235 244 255 255 260
284 298 333 334 327 325 335 342 343 338 340 342 337 303 286 269 265 259 252 228 155 157 128 215 293 332 308 299 309 309 306 302 261 257 255 246 245 247 251 249 257 249 247
273 289 310 328 330 330 344 350 356 351 354 1 10 17 38 44 78 95 147 131 107 103 103 145 353 353 349 346 342 338 327 330 312 308 313 272 252 245 246 240 234 265 233
255 264 235 337 343 347 2 6 4 5 9 13 28 60 77 106 110 110 108 119 112 105 104 61 7 351 353 356 4 2 350 350 356 1 4 3 350 322 309 310 280 262 305
255 252 235 267 307 335 5 19 20 13 20 25 38 52 80 102 105 111 100 97 97 103 106 55 11 355 358 359 1 9 357 353 356 355 354 350 353 353 356 5 354 306 279
235 220 227 245 291 310 332 331 11 21 25 31 41 56 65 70 78 88 87 77 74 57 41 34 15 3 9 359 9 351 350 356 353 356 0 355 355 346 339 332 330 328 346
206 201 211 229 278 70 57 14 21 6 9 20 41 49 54 57 54 54 55 43 34 33 26 27 41 13 23 15 6 355 356 354 354 354 352 353 352 345 345 356 353 338 339
195 187 185 207 208 265 332 38 17 15 38 44 35 43 49 50 53 54 46 45 41 43 45 40 30 17 16 3 1 357 356 354 351 351 349 350 352 348 344 341 333 330 332
207 199 198 207 204 216 235 231 275 359 28 27 44 40 37 37 35 37 37 38 37 34 32 31 23 20 8 352 354 353 349 346 343 344 344 342 339 336 337 338 332 323 317
215 207 207 205 206 205 212 222 226 223 159 29 30 28 19 18 19 22 21 18 20 20 16 13 13 10 17 347 351 348 348 347 343 340 335 332 327 322 321 326 321 320 313
223 214 207 199 202 205 209 214 216 213 204 151 39 20 14 13 13 13 11 9 10 8 8 8 358 350 349 332 342 342 341 340 336 331 328 325 327 327 320 315 306 300 304
220 212 204 195 202 206 206 208 210 211 220 292 347 353 355 358 358 357 355 356 355 353 353 350 344 341 343 339 332 338 334 330 330 329 328 328 323 322 319 322 312 305 298
226 219 197 201 203 200 197 200 197 207 216 230 258 300 324 337 345 346 346 347 345 345 344 344 342 334 333 332 325 330 324 321 318 317 315 311 310 311 308 302 297 296 291
233 223 212 205 193 190 191 190 197 204 210 218 219 227 266 297 316 324 327 330 328 330 335 335 330 325 322 317 323 323 317 312 308 310 311 306 303 304 305 305 299 295 292
260 228 208 195 187 190 192 191 200 204 210 213 212 231 255 285 306 315 319 325 322 323 326 328 330 327 318 315 326 323 312 310 311 312 312 310 307 308 309 308 303 292 290
269 218 193 188 196 194 194 199 205 210 213 209 212 221 239 276 309 308 316 323 323 321 320 324 328 328 328 324 329 325 320 316 314 314 313 312 313 312 311 307 301 293 296
240 203 185 195 196 196 195 204 211 214 209 206 214 221 238 271 287 290 297 310 309 316 319 323 328 331 330 329 329 324 319 318 318 313 311 310 313 314 313 310 302 308 303
237 215 208 203 202 203 204 207 217 207 201 207 210 214 224 252 273 279 285 300 306 317 321 329 331 332 333 336 335 327 325 324 319 315 312 313 316 316 316 315 313 317 317
236 226 213 210 212 211 210 216 212 203 203 207 205 203 215 229 234 262 288 296 304 310 316 330 330 327 327 331 335 329 327 324 321 320 318 320 319 318 318 319 321 316 318
262 237 214 213 219 215 211 213 209 202 202 208 203 203 210 218 235 251 282 297 313 304 307 313 316 314 317 322 324 327 326 326 324 324 326 326 327 326 325 327 321 321 317
268 251 232 222 225 220 213 209 208 206 205 203 204 206 213 218 244 269 291 299 301 319 312 305 303 307 310 318 323 325 328 331 331 332 326 325 325 324 322 323 320 316 319